SCP
0 0 0 0 0 0 0 0 0 0 0 0 0 0 0 0 0 0 0 0 1 1 0 0 0 0 0 0 0 0 0 0 0 0 0 0 0 0 0 0 0 0 0 0 0 0 0 0 0
0 0 0 0 0 0 0 0 0 0 0 0 0 0 0 0 0 0 0 0 1 1 0 0 0 0 0 0 0 0 0 0 0 0 0 0 0 0 0 0 0 0 0 0 0 0 0 0 0
0 0 0 0 0 0 0 0 0 0 0 0 0 0 0 0 0 0 0 0 1 1 0 0 0 0 0 0 0 0 0 0 0 0 0 0 0 0 0 0 0 0 0 0 0 0 0 0 0
0 0 0 0 0 0 0 0 0 0 0 0 0 0 0 0 0 0 0 0 1 1 1 1 1 0 0 0 0 0 0 0 0 0 0 0 0 0 0 0 0 0 0 0 0 0 0 0 0
0 0 0 0 0 0 0 0 0 0 0 0 0 0 0 0 0 0 0 0 1 1 1 1 1 1 0 0 0 0 0 0 0 0 0 0 0 0 0 0 0 0 0 0 0 0 0 0 0
0 0 0 0 0 0 0 0 0 0 0 0 0 0 0 0 0 0 0 1 1 1 1 1 1 1 0 0 0 0 0 0 0 0 0 0 0 0 0 0 0 0 0 0 0 0 0 0 0
0 0 0 0 0 0 0 0 0 0 0 0 0 0 0 0 0 0 0 1 1 1 1 1 1 1 0 0 0 0 0 0 0 0 0 0 0 0 0 0 0 0 0 0 0 0 0 0 0
0 0 0 0 0 0 0 0 0 0 0 0 0 0 0 1 1 0 1 1 1 1 1 1 1 0 0 0 0 0 0 0 0 0 0 0 0 0 0 0 0 0 0 0 0 0 0 0 0
0 0 0 0 0 0 0 0 0 0 0 0 0 0 0 1 1 1 1 1 1 1 1 0 0 0 0 0 0 0 0 0 0 0 0 0 0 0 0 0 0 0 0 0 0 0 0 0 0
0 0 0 0 0 0 0 0 0 0 0 0 0 0 0 0 1 1 1 1 1 1 1 0 0 0 0 0 0 0 0 0 0 0 0 0 0 0 0 0 0 0 0 0 0 0 0 0 0
0 0 0 0 0 0 0 0 0 0 0 0 0 0 0 0 0 1 1 1 1 1 1 1 0 0 0 0 0 0 0 0 0 0 0 0 0 0 0 0 0 0 0 0 0 0 0 0 0
0 0 0 0 0 0 0 0 0 0 0 0 0 0 0 0 0 0 1 1 1 1 1 1 0 0 0 0 0 0 0 0 0 0 0 0 0 0 0 0 0 0 0 0 0 0 0 0 0
0 0 0 0 0 0 0 0 0 0 0 0 0 0 0 0 0 0 0 1 1 1 1 1 0 0 0 0 0 0 0 0 0 0 0 0 0 0 0 0 0 0 0 0 0 0 0 0 0
0 0 0 0 0 0 0 0 0 0 0 0 0 0 0 0 0 0 0 0 1 1 1 1 0 0 0 0 0 0 0 0 0 0 0 0 0 0 0 0 0 0 0 0 0 0 0 0 0
0 0 0 0 0 0 0 0 0 0 0 0 0 0 0 0 0 0 0 0 0 1 1 1 0 0 0 0 0 0 0 0 0 0 0 0 0 0 0 0 0 0 0 0 0 0 0 0 0
0 0 0 0 0 0 0 0 0 0 0 0 0 0 0 0 0 0 0 0 0 0 0 0 0 0 0 0 0 0 0 0 0 0 0 0 0 0 0 0 0 0 0 0 0 0 0 0 0
0 0 0 0 0 0 0 0 0 0 0 0 0 0 0 0 0 0 0 0 0 0 0 0 0 1 1 1 1 0 0 0 0 0 0 0 0 0 0 0 0 0 0 0 0 0 0 0 0
0 0 0 0 0 0 0 0 0 0 0 0 0 0 0 0 0 0 0 0 0 0 0 0 0 1 1 1 1 1 1 0 0 0 0 0 0 0 0 0 0 0 0 0 0 0 0 0 0
0 0 0 0 0 0 0 0 0 0 0 0 0 0 0 0 0 0 0 0 0 0 0 0 0 0 1 1 1 1 1 1 1 0 0 0 0 0 0 0 0 0 0 0 0 0 0 0 0
0 0 0 0 0 0 0 0 0 0 0 0 0 0 0 0 0 0 0 0 0 0 0 0 0 0 0 1 1 1 1 1 1 1 0 0 0 0 0 0 0 0 0 0 0 0 0 0 0
0 0 0 0 0 0 0 0 0 0 0 0 0 0 0 0 0 0 0 0 0 0 0 0 0 0 0 0 1 1 1 1 1 1 1 0 0 0 0 1 0 0 0 0 0 0 0 0 0
0 0 0 0 0 0 0 0 0 0 0 0 0 0 0 0 0 0 0 0 0 0 0 0 0 0 0 0 0 0 1 1 1 1 0 0 0 0 0 0 0 1 0 0 0 0 0 0 0
0 0 0 0 0 0 0 0 0 0 0 0 0 0 0 0 0 0 0 0 0 0 0 0 0 0 0 0 0 0 0 0 0 0 0 0 0 0 0 0 0 0 0 0 0 0 0 0 0
0 0 0 0 0 0 0 0 0 0 0 0 0 0 0 0 0 0 0 0 0 0 0 0 0 0 0 0 0 0 0 0 0 0 0 0 0 0 0 0 0 0 0 0 0 0 0 0 0
0 0 0 0 0 0 0 0 0 0 0 0 0 0 0 0 0 0 0 0 0 0 0 0 0 0 0 0 0 0 0 0 0 0 0 0 0 0 0 0 0 0 0 0 0 0 0 0 0
0 0 0 0 0 0 0 0 0 0 0 0 0 0 0 0 0 0 0 0 0 0 0 0 0 0 0 0 0 0 0 0 0 0 0 0 0 0 0 0 0 0 0 0 0 0 0 0 0
0 0 0 0 0 0 0 0 0 0 0 0 0 0 0 0 0 0 0 0 0 0 0 0 0 0 0 0 0 0 0 0 0 0 0 0 0 0 0 0 0 0 0 0 0 0 0 0 0
0 0 0 0 0 0 0 0 0 0 0 0 0 0 0 0 0 0 0 0 0 0 0 0 0 0 0 0 0 0 0 0 0 0 0 0 0 0 0 0 0 0 0 0 0 0 0 0 0
0 0 0 0 0 0 0 0 0 0 0 0 0 0 0 0 0 0 0 0 0 0 0 0 0 0 0 0 0 0 0 0 0 0 0 0 0 0 0 0 0 0 0 0 0 0 0 0 0
0 0 0 0 0 0 0 0 0 0 0 0 0 0 0 0 0 0 0 0 0 0 0 0 0 0 0 0 0 0 0 0 0 0 0 0 0 0 0 0 0 0 0 0 0 0 0 0 0
Wind_Speed
8 10 8 3 3 5 9 9 6 1 2 4 6 5 7 5 4 5 4 7 16 17 16 16 16 16 15 15 14 13 13 12 12 12 11 9 8 8 7 7 7 9 10 11 13 14 13 13 13
7 8 5 3 5 7 8 9 6 2 4 5 2 3 5 2 8 7 4 10 16 16 15 15 16 16 16 16 15 14 13 13 12 11 10 9 8 7 7 7 9 10 11 12 14 14 13 12 12
7 7 4 4 8 10 9 6 5 4 6 2 3 5 4 3 7 6 7 11 14 14 13 16 16 16 16 16 15 14 13 13 12 11 10 8 8 7 8 9 10 11 11 13 13 13 12 11 11
3 2 4 7 12 13 12 6 1 4 4 3 3 3 4 6 5 7 8 10 13 13 13 15 15 16 16 15 14 14 13 12 11 10 9 9 9 9 10 10 11 11 11 12 13 12 11 10 10
2 2 6 11 15 12 10 8 2 2 4 5 5 3 6 4 8 9 7 10 12 13 14 14 14 16 16 15 14 14 13 13 11 10 9 9 9 10 11 11 11 11 11 12 12 11 10 9 9
3 4 8 14 16 14 11 8 5 4 4 4 4 4 5 5 8 7 7 8 11 14 14 13 14 15 15 15 14 13 13 12 11 10 9 9 10 10 10 10 10 11 11 11 11 10 10 9 8
6 7 12 15 15 15 13 9 7 6 5 4 2 2 7 7 7 7 7 7 12 14 13 11 10 12 14 14 13 13 12 11 10 10 9 9 9 9 9 9 10 11 11 11 10 10 9 8 7
6 5 13 16 15 14 11 10 7 6 5 3 1 1 6 7 6 7 5 7 11 11 12 11 10 9 9 9 12 12 12 11 10 9 9 10 9 8 8 7 8 10 11 10 9 9 8 7 6
6 8 13 15 14 12 8 7 6 3 4 5 1 6 9 8 6 6 4 5 7 9 10 10 10 9 9 9 10 10 10 10 10 8 10 9 6 6 5 7 9 9 10 9 9 8 8 6 5
6 10 16 11 9 9 6 4 5 5 6 6 3 7 11 8 7 6 5 4 5 6 8 8 9 8 8 8 8 6 7 7 6 6 7 5 5 5 7 10 9 9 8 8 8 8 7 5 4
8 9 10 10 4 4 2 2 2 4 6 7 6 8 10 9 8 8 7 6 4 4 4 5 6 7 7 6 7 4 4 6 6 7 8 5 4 5 6 4 5 5 6 5 5 5 4 5 4
10 11 11 8 1 2 2 1 3 5 4 2 3 3 8 8 8 7 8 9 8 6 5 4 4 5 5 6 5 4 4 5 4 6 9 5 3 4 5 4 5 5 4 4 5 4 6 5 5
15 10 9 3 1 1 2 3 4 5 1 5 5 4 3 5 6 6 6 7 8 8 8 6 4 4 4 5 4 4 4 5 5 4 6 6 4 4 4 4 5 6 5 5 5 5 5 5 4
11 10 7 3 3 2 3 4 5 5 2 2 2 1 2 3 4 5 6 6 7 7 8 7 6 5 4 4 4 3 3 4 4 4 5 6 4 4 4 4 4 5 4 5 5 5 4 4 3
8 8 7 6 5 4 3 8 10 7 4 4 5 5 4 3 4 4 5 5 6 7 7 8 8 7 6 5 4 3 3 3 4 4 6 6 6 6 5 4 4 4 4 5 4 5 3 3 3
8 7 9 9 9 7 7 11 10 10 9 8 7 6 6 6 5 4 4 5 5 5 7 8 8 8 8 6 4 3 3 3 4 4 5 7 7 6 5 4 4 5 4 4 4 3 3 3 3
8 10 13 10 14 9 10 8 7 9 11 10 8 8 7 6 6 5 4 4 4 5 6 7 8 8 8 7 5 5 4 4 3 3 4 6 7 7 6 5 4 5 4 4 4 4 4 4 4
14 13 14 13 13 13 12 9 6 4 5 7 8 8 7 6 5 4 3 2 3 2 2 4 6 7 7 6 5 4 5 4 3 3 4 5 6 7 7 5 6 6 4 5 4 5 4 4 5
11 13 13 12 10 12 12 11 10 7 6 7 7 7 6 5 4 3 2 2 1 1 1 2 2 4 5 5 5 5 5 5 5 5 5 6 6 7 7 6 6 6 6 6 6 5 6 4 4
8 9 10 6 8 8 9 12 10 8 8 6 6 5 4 2 2 2 2 2 2 1 1 1 2 2 2 3 4 4 4 5 6 5 7 7 7 7 6 7 6 7 6 7 8 6 5 5 5
9 8 7 7 6 4 5 8 11 7 6 5 5 4 2 1 1 2 3 3 3 3 2 2 2 2 1 1 1 1 2 2 3 5 6 7 8 8 7 7 7 6 7 6 8 7 8 6 6
8 6 5 7 6 5 7 5 10 11 9 8 7 5 4 2 2 3 4 4 3 3 3 3 3 3 3 2 1 1 2 3 4 4 4 6 8 9 9 9 8 7 6 7 8 8 7 7 6
2 1 2 4 5 3 7 5 4 10 10 9 7 6 5 4 4 4 4 4 4 3 3 3 3 3 3 3 2 2 2 3 2 2 4 5 5 7 9 9 8 8 7 8 8 8 8 8 7
4 3 3 1 2 4 8 7 5 7 11 10 8 6 6 5 5 5 4 3 3 3 3 2 2 2 3 3 3 3 3 3 3 4 4 4 3 4 6 7 8 8 8 8 9 9 9 9 9
5 6 4 4 4 6 7 6 4 6 10 11 10 8 6 5 5 4 4 3 4 4 3 2 3 3 4 4 4 3 3 3 3 4 4 4 3 2 4 4 6 6 7 8 8 8 9 9 8
7 5 2 4 6 4 3 5 1 7 9 9 9 7 6 5 5 5 4 4 4 4 3 4 4 3 4 4 4 4 4 3 2 3 3 3 2 2 3 3 3 4 5 6 7 7 7 6 8
6 4 1 2 2 3 5 4 4 5 8 8 8 7 6 6 5 5 5 4 4 4 4 4 4 4 5 5 5 5 5 4 4 4 4 3 3 3 3 2 2 2 2 3 3 4 4 4 4
0 2 2 1 1 3 6 8 8 11 9 8 8 8 7 6 5 5 5 4 4 4 4 4 5 5 5 5 5 5 5 5 5 4 5 5 5 5 4 4 3 3 3 2 1 0 1 1 1
3 2 2 2 2 2 2 1 1 14 11 9 7 7 7 6 5 5 4 4 4 3 4 5 5 5 5 5 5 5 5 6 6 5 6 6 6 6 6 5 5 5 5 5 4 3 3 3 4
2 4 5 3 3 3 2 1 2 9 8 7 7 7 6 6 5 4 4 3 4 4 4 5 5 5 5 5 5 5 6 6 6 6 7 6 6 6 7 7 8 8 7 7 6 6 6 5 5
Wind_Direction
279 269 266 260 251 233 239 246 261 64 50 39 21 340 326 329 29 94 198 121 120 130 139 145 141 143 141 136 131 129 128 126 123 120 116 110 107 106 103 104 111 109 106 106 104 97 93 89 87
281 267 264 249 237 234 233 232 240 171 81 59 15 282 288 319 90 109 126 114 125 130 141 145 140 142 141 136 134 132 129 126 123 119 115 112 111 108 106 108 115 110 106 107 106 100 96 92 90
273 266 253 235 233 238 243 225 204 148 106 134 222 217 235 30 75 99 116 127 127 132 142 136 140 141 139 137 135 133 131 127 123 119 115 115 112 108 108 110 113 110 107 110 109 105 100 96 93
241 240 253 244 236 233 252 272 54 129 138 179 255 221 101 48 47 95 123 134 131 134 130 135 139 140 138 137 137 136 132 128 125 121 119 118 115 109 106 109 113 113 111 114 114 109 104 100 98
219 209 231 241 244 241 242 246 206 182 181 178 225 249 88 74 84 106 142 139 135 130 126 139 137 141 141 140 140 138 135 132 129 127 124 123 120 112 109 110 115 119 119 119 118 114 109 104 100
183 203 220 229 238 241 246 241 209 208 206 181 203 244 99 112 110 131 142 140 128 122 127 137 138 141 143 143 142 140 138 136 135 134 128 123 119 116 116 115 119 124 124 124 123 119 115 109 105
204 205 225 228 232 236 236 237 217 208 231 208 201 249 112 107 115 134 143 139 119 121 127 136 142 143 144 143 143 143 141 140 140 137 128 120 117 119 121 119 124 129 129 127 126 125 123 118 114
218 222 231 235 237 234 229 226 219 208 230 249 227 321 111 117 128 126 138 124 119 124 133 143 147 147 146 145 146 145 144 143 142 133 124 122 122 126 128 127 127 131 132 131 132 133 132 128 127
234 229 227 224 235 244 236 216 203 183 263 265 168 82 100 114 113 107 99 98 118 130 138 147 151 155 154 154 149 144 146 148 144 137 138 141 150 148 148 135 128 134 138 141 144 143 141 139 143
212 225 226 230 238 252 244 217 183 171 226 250 202 116 119 127 131 130 128 120 121 132 140 151 155 157 159 154 149 158 160 156 167 159 161 183 183 163 150 135 139 144 147 150 155 155 158 166 169
208 231 234 245 296 334 281 201 206 198 216 228 204 156 140 143 153 157 160 159 158 152 141 151 155 156 154 143 157 166 166 165 190 173 174 200 183 138 132 141 140 148 158 165 160 166 199 210 187
218 230 238 246 318 359 333 263 242 235 233 46 62 108 140 154 166 173 172 167 170 172 170 162 158 156 158 153 166 167 167 167 183 182 176 190 167 154 157 162 167 174 182 182 174 196 213 214 187
225 233 231 230 196 235 275 271 271 256 224 68 50 36 134 166 169 173 174 164 168 174 173 175 179 179 177 168 171 176 175 172 180 180 179 178 164 170 178 179 172 180 183 183 185 206 206 197 196
216 227 229 208 204 228 241 257 256 255 231 148 155 211 219 197 178 168 171 174 171 173 173 175 186 195 192 188 177 185 182 172 178 171 186 184 175 180 184 188 178 183 186 176 185 204 202 186 189
213 213 215 210 203 212 233 250 241 246 258 234 215 213 214 213 188 184 176 180 177 177 176 178 185 191 196 205 196 193 195 182 187 179 188 192 190 185 185 189 185 187 187 183 183 203 198 183 181
198 201 206 205 202 203 208 238 232 224 233 240 237 228 210 204 197 198 191 181 181 178 182 183 187 189 194 198 198 199 211 205 195 189 188 196 198 190 187 192 196 190 186 187 185 192 185 180 174
187 200 203 199 196 193 204 240 237 206 213 226 234 238 232 209 198 194 194 180 185 189 190 188 185 188 192 192 192 199 211 221 214 204 197 198 201 198 191 195 201 195 192 190 187 186 178 179 184
187 197 201 203 187 194 207 226 240 198 207 226 233 233 230 223 206 185 174 173 173 187 202 195 190 190 190 188 190 192 204 218 223 224 220 210 203 202 198 197 204 201 196 195 189 187 188 183 180
200 203 205 204 179 190 212 224 228 206 203 225 237 238 226 215 196 153 129 106 111 135 239 241 216 202 190 186 188 192 202 208 214 222 229 229 223 212 205 202 203 206 205 199 193 185 194 199 167
240 221 211 179 163 181 213 226 227 216 207 213 237 248 238 214 171 130 112 89 64 50 284 271 256 240 221 197 196 197 199 206 209 211 220 224 228 230 222 211 207 207 210 206 200 192 186 193 176
229 229 207 156 148 200 230 234 222 211 208 210 228 247 269 251 157 123 105 91 69 44 16 354 337 321 285 264 222 222 202 206 208 212 214 217 219 223 226 225 218 212 211 215 210 200 193 198 198
211 229 200 159 156 202 203 237 212 194 197 206 207 205 202 171 121 96 85 84 82 55 23 358 342 336 334 329 285 243 226 223 224 220 219 216 214 217 220 221 219 219 218 218 216 211 204 192 199
190 196 167 168 202 233 193 236 232 168 186 194 187 176 157 137 117 100 84 78 81 68 38 3 350 349 348 345 331 286 267 258 264 262 252 240 226 221 219 218 217 220 222 222 219 216 213 206 200
135 115 93 128 222 243 209 211 227 186 184 171 158 145 136 126 120 115 112 103 91 77 50 11 359 3 4 354 341 322 295 289 292 286 278 268 255 237 226 222 220 220 221 222 222 221 218 215 211
167 151 145 169 198 233 199 201 249 167 151 147 143 140 137 139 135 126 116 97 88 75 50 17 22 17 9 1 351 340 327 314 295 287 280 282 280 273 253 234 227 224 224 223 221 222 224 220 216
188 201 177 180 189 187 170 206 132 107 114 119 124 127 138 137 124 118 108 95 85 71 50 35 31 25 18 10 357 351 348 339 323 318 313 306 299 295 296 275 256 240 230 227 224 225 225 221 220
169 210 346 321 273 164 198 173 96 117 124 134 142 150 155 139 131 122 109 91 76 62 46 35 31 30 23 13 5 5 2 358 347 340 341 337 335 331 333 326 306 294 272 239 222 225 227 221 224
112 142 149 183 234 235 190 184 182 174 170 166 163 161 149 139 133 121 108 95 77 64 50 40 37 34 27 18 13 15 9 4 358 2 3 0 1 4 3 3 9 14 18 18 39 166 168 154 138
158 160 199 239 281 278 220 166 100 167 168 167 159 143 136 130 120 110 104 98 91 74 58 49 42 36 28 20 20 24 17 12 15 22 19 16 20 20 21 26 34 39 41 41 52 59 70 90 86
234 200 186 194 246 233 266 359 26 139 142 142 133 127 125 119 113 112 110 102 91 75 62 52 46 38 29 25 32 32 26 26 29 27 24 26 32 34 37 44 49 48 47 47 55 64 67 78 85